Weather History for KFHR - February, 2014

Change the Weather History Date:

Wednesday, February 26, 2014

  Actual Average Record
Temperature  
Mean Temperature 42 °F -  
Max Temperature 48 °F 46 °F 52 °F (2004)
Min Temperature 36 °F 34 °F 18 °F (2011)
Degree Days  
Heating Degree Days 23    
Moisture  
Dew Point 33 °F    
Average Humidity 72    
Maximum Humidity 82    
Minimum Humidity 63    
Precipitation  
Precipitation 0.00 in - - ()
Sea Level Pressure  
Sea Level Pressure 29.89 in    
Wind  
Wind Speed 4 mph (NNW)    
Max Wind Speed 7 mph    
Max Gust Speed -    
Visibility 10 miles    
Events      
Averages and records for this station are not official NWS values.
T = Trace of Precipitation, MM = Missing Value Source: NWS Daily Summary

Daily Weather History Graph

Daily Weather History Graph

Search for Another Location

Airport or City:

Trip Planner

Search our weather history database for the weather conditions in past years. The results will help you decide how hot, cold, wet, or windy it might be!

Date:

Astronomy

Feb. 26, 2014 Rise Set
Actual Time 6:59 AM PST 5:51 PM PST
Civil Twilight 6:27 AM PST 6:23 PM PST
Nautical Twilight 5:51 AM PST 6:59 PM PST
Astronomical Twilight 5:15 AM PST 7:35 PM PST
Moon 5:00 AM PST (2/26) 3:03 PM PST (2/26)
Length of Visible Light 11h 55m
Length of Day
10h 52m
Waning Crescent, 9% of the Moon is Illuminated
Feb 26
Waning Crescent
Mar 1
New
Mar 8
First Quarter
Mar 16
Full
Mar 23
Last Quarter

Hourly Weather History & Observations

Time (PST) Temp. Windchill Dew Point Humidity Pressure Visibility Wind Dir Wind Speed Gust Speed Precip Events Conditions
12:53 AM 39.9 °F - 30.9 °F 70% 30.03 in 10.0 mi Calm Calm - N/A   Clear
1:53 AM 39.0 °F 36.8 °F 30.0 °F 70% 30.01 in 10.0 mi NW 3.5 mph - N/A   Clear
2:53 AM 37.9 °F 35.5 °F 28.9 °F 70% 30.01 in 10.0 mi NNW 3.5 mph - N/A   Clear
3:53 AM 37.9 °F 34.4 °F 30.0 °F 73% 29.99 in 10.0 mi NNW 4.6 mph - N/A   Clear
4:53 AM 37.9 °F - 30.0 °F 73% 29.99 in 10.0 mi Calm Calm - N/A   Clear
5:53 AM 39.0 °F 34.8 °F 30.0 °F 70% 29.97 in 10.0 mi NNW 5.8 mph - N/A   Clear
6:53 AM 36.0 °F 33.3 °F 28.9 °F 76% 29.96 in 10.0 mi Variable 3.5 mph - N/A   Clear
7:53 AM 39.0 °F 35.7 °F 28.9 °F 67% 29.95 in 10.0 mi North 4.6 mph - N/A   Clear
8:53 AM 42.1 °F 39.2 °F 32.0 °F 67% 29.95 in 10.0 mi Variable 4.6 mph - N/A   Clear
9:53 AM 43.0 °F 38.8 °F 33.1 °F 68% 29.94 in 10.0 mi Variable 6.9 mph - N/A   Clear
10:53 AM 44.1 °F 40.8 °F 34.0 °F 68% 29.93 in 10.0 mi Variable 5.8 mph - N/A   Clear
11:53 AM 44.1 °F 40.1 °F 33.1 °F 65% 29.92 in 10.0 mi NNW 6.9 mph - N/A   Clear
12:53 PM 46.0 °F 42.5 °F 34.0 °F 63% 29.90 in 10.0 mi North 6.9 mph - N/A   Clear
1:53 PM 46.9 °F - 35.1 °F 63% 29.88 in 10.0 mi North 6.9 mph - N/A   Clear
2:53 PM 48.0 °F - 36.0 °F 63% 29.86 in 10.0 mi North 6.9 mph - N/A   Clear
3:53 PM 46.0 °F 43.9 °F 36.0 °F 68% 29.84 in 10.0 mi NNW 4.6 mph - N/A   Clear
4:53 PM 44.1 °F 41.5 °F 37.0 °F 76% 29.83 in 10.0 mi NNW 4.6 mph - N/A   Partly Cloudy
5:53 PM 42.1 °F 39.2 °F 36.0 °F 79% 29.82 in 10.0 mi NW 4.6 mph - N/A   Clear
6:53 PM 42.1 °F 38.4 °F 36.0 °F 79% 29.80 in 10.0 mi Variable 5.8 mph - N/A   Partly Cloudy
7:53 PM 41.0 °F 38.0 °F 35.1 °F 79% 29.80 in 10.0 mi NNW 4.6 mph - N/A   Mostly Cloudy
8:53 PM 42.1 °F 39.2 °F 36.0 °F 79% 29.79 in 10.0 mi NNW 4.6 mph - N/A   Overcast
9:53 PM 42.1 °F 40.2 °F 36.0 °F 79% 29.78 in 10.0 mi Variable 3.5 mph - N/A   Mostly Cloudy
10:53 PM 42.1 °F 40.2 °F 37.0 °F 82% 29.76 in 10.0 mi NNW 3.5 mph - N/A   Overcast
11:53 PM 42.1 °F 39.2 °F 37.0 °F 82% 29.75 in 10.0 mi NNW 4.6 mph - N/A   Clear